Location: Bittkow
(50.3000°N, 19.0000°E)
Time: 12:45:06
(UTC+00:00)

CZ-2D R/B - Pass Details

Date: 19 September 2020
Orbit: 791 x 846 km, 98.7° (Epoch: 21 October)

Event Time Altitude Azimuth Distance (km) Brightness Sun altitude
Rises 01:55:03 0° 7° (N) 3,367 5.9 -23.5°
Reaches altitude 10° 01:57:48 10° 354° (N) 2,420 4.9 -23.1°
Maximum altitude 02:02:00 24° 302° (WNW) 1,615 3.4 -22.5°
Enters shadow 02:02:03 24° 301° (WNW) 1,614 3.4 -22.5°
